"2016-06-29 00:00:00",1763929,8.63,48.51,3.347,0.329,26.4,110.8154,26.99,28.07,19.23,0,111.3,13.01,27.84,10.5
"2016-06-29 00:00:30",1763930,8.48,49.87,6.022,0.333,26.39,110.8078,26.97,28.04,19.28,0,111.3,13.01,27.82,11.9
"2016-06-29 00:01:00",1763931,7.486,51.73,5.344,0.834,26.37,110.789,26.92,28.03,19.34,0,111.3,13.01,27.77,13.7
"2016-06-29 00:01:30",1763932,7.991,46.89,2.563,0.257,26.34,110.782,26.9,27.99,19.38,0,111.3,13.01,27.75,8.9
"2016-06-29 00:02:00",1763933,7.642,46.86,2.062,0.204,26.41,110.7817,26.9,27.99,19.31,0,111.3,13.01,27.75,8.9
"2016-06-29 00:02:30",1763934,7.674,45.89,1.85,0.301,26.34,110.7817,26.9,27.99,19.55,0,111.3,13.01,27.75,7.9
"2016-06-29 00:03:00",1763935,7.917,44.11,2.268,0.242,26.3,110.7772,26.89,27.96,21.34,0,111.3,13.01,27.74,6.1
"2016-06-29 00:03:30",1763936,7.769,43.41,2.169,0.469,26.3,110.7584,26.84,27.93,22.71,0,111.3,13.01,27.69,5.4
"2016-06-29 00:04:00",1763937,7.219,50.3,4.752,0.295,26.46,110.75,26.82,27.93,21.09,0,111.3,13.01,27.67,12.3
"2016-06-29 00:04:30",1763938,7.154,42.62,2.069,0.795,26.25,110.7492,26.82,27.9,21.92,0,111.3,13.01,27.67,4.6
"2016-06-29 00:05:00",1763939,7.709,40.36,1.811,0.557,26.12,110.7498,26.82,27.89,24.82,0,111.3,13.01,27.67,2.4
"2016-06-29 00:05:30",1763940,7.467,39.75,3.035,1.056,26.04,110.7302,26.77,27.87,28.25,0,111.3,13.01,27.62,1.8
"2016-06-29 00:06:00",1763941,6.55,39.05,2.939,0.767,26.17,110.7174,26.74,27.86,27.21,0,111.3,13.01,27.58,1.0
"2016-06-29 00:06:30",1763942,7.085,46,4.166,0.787,26.51,110.7074,26.71,27.83,22.23,0,111.3,13.01,27.56,8.0
"2016-06-29 00:07:00",1763943,5.931,27.51,3.464,0.631,25.97,110.6954,26.68,27.79,26.56,0,111.3,13.01,27.53,349.5
"2016-06-29 00:07:30",1763944,5.917,28.82,3.512,0.592,25.84,110.6971,26.69,27.79,30.95,0,111.3,13.01,27.53,350.8
"2016-06-29 00:08:00",1763945,6.634,29.23,2.955,0.297,26,110.6824,26.65,27.76,30.29,0,111.3,13.01,27.49,351.2
"2016-06-29 00:08:30",1763946,6.653,25.72,2.76,0.307,26.05,110.664,26.6,27.73,30.47,0,111.3,13.01,27.45,347.7
"2016-06-29 00:09:00",1763947,6.836,21.08,2.543,0.606,26.1,110.6505,26.57,27.7,30.79,0,111.3,13.01,27.41,343.1
"2016-06-29 00:09:30",1763948,4.021,18.82,7.802,1.461,25.72,110.6387,26.54,27.66,32.07,0,111.3,13.01,27.38,340.8
"2016-06-29 00:10:00",1763949,3.516,15.69,6,1.107,25.74,110.6359,26.53,27.64,32.93,0,111.3,13.01,27.37,337.7
"2016-06-29 00:10:30",1763950,3.093,13.12,5.446,0.619,25.94,110.6139,26.47,27.6,33.61,0,111.3,13.01,27.32,335.1
"2016-06-29 00:11:00",1763951,3.04,12.37,5.29,0.674,25.76,110.6072,26.45,27.57,34.23,0,111.3,13.01,27.30,334.4
"2016-06-29 00:11:30",1763952,5.371,356.1,3.874,1.471,25.72,110.6027,26.44,27.56,36.3,0,111.3,13.01,27.29,318.1
"2016-06-29 00:12:00",1763953,6.614,354.4,5.099,1.696,26.03,110.5758,26.37,27.51,36.86,0,111.3,13.01,27.22,316.4
"2016-06-29 00:12:30",1763954,7.768,345.7,7.73,0.776,23.61,110.5592,26.33,27.47,37.87,0,111.3,13.01,27.18,307.7
"2016-06-29 00:13:00",1763955,8.33,347.7,2.523,0.503,27.05,110.5406,26.28,27.44,38.57,0,111.3,13.01,27.13,309.7
"2016-06-29 00:13:30",1763956,7.43,341.5,6.476,0.834,25.82,110.5252,26.24,27.41,38.15,0,111.3,13.01,27.09,303.5
"2016-06-29 00:14:00",1763957,9.03,336.6,10.87,0.618,26.46,110.5098,26.2,27.36,38.13,0,111.3,13.01,27.05,298.6
"2016-06-29 00:14:30",1763958,8.43,333.3,9.88,0.809,24.35,110.4833,26.14,27.33,37.59,0,111.2,13.01,26.98,295.3
"2016-06-29 00:15:00",1763959,8.18,347.6,4.401,0.97,25.96,110.4634,26.09,27.27,38.13,0,111.3,13.02,26.93,309.6
"2016-06-29 00:15:30",1763960,8.59,341.1,4.557,0.798,21.04,110.4431,26.03,27.22,37.86,0,111.3,13.01,26.88,303.1
"2016-06-29 00:16:00",1763961,9.92,324.9,3.987,0.639,26.44,110.4145,25.96,27.16,37.81,0,111.3,13.02,26.80,286.9
"2016-06-29 00:16:30",1763962,8.58,321.1,5.127,1.082,24,110.3893,25.89,27.1,37.75,0,111.3,13.02,26.74,283.1
"2016-06-29 00:17:00",1763963,10.33,325,3.429,0.74,21.48,110.3601,25.82,27.03,37.6,0,111.3,13.02,26.66,287.0
"2016-06-29 00:17:30",1763964,10.3,335.2,6.214,0.852,26.24,110.3362,25.76,26.96,37.58,0,111.3,13.02,26.60,297.2
"2016-06-29 00:18:00",1763965,9.88,324.5,8.92,1.184,25.5,110.3103,25.69,26.9,37.55,0,111.3,13.02,26.53,286.5
"2016-06-29 00:18:30",1763966,9.87,329.3,6.407,0.678,23.18,110.2809,25.62,26.84,38.29,0,111.2,13.03,26.46,291.3
"2016-06-29 00:19:00",1763967,9.9,328.7,3.648,0.543,21.46,110.257,25.55,26.78,37.7,0,111.2,13.02,26.40,290.7
"2016-06-29 00:19:30",1763968,8.62,334.4,3.099,0.484,22.06,110.2441,25.52,26.72,37.7,0,111.3,13.03,26.36,296.4
"2016-06-29 00:20:00",1763969,7.88,339.4,3.009,0.521,26.41,110.2154,25.45,26.66,37.37,0,111.2,13.03,26.29,301.4
"2016-06-29 00:20:30",1763970,7.876,338.2,3.883,0.551,19.17,110.2112,25.44,26.62,36.92,0,111.3,13.02,26.28,300.2
"2016-06-29 00:21:00",1763971,7.372,340.9,6.49,0.689,25.59,110.1938,25.39,26.57,37.6,0,111.2,13.03,26.23,302.9
"2016-06-29 00:21:30",1763972,7,336.7,4.547,0.805,26.08,110.182,25.36,26.54,37.54,0,111.2,13.03,26.20,298.7
"2016-06-29 00:22:00",1763973,6.426,334.4,7.782,0.7,25.83,110.1786,25.35,26.49,36.53,0,111.2,13.03,26.19,296.4
"2016-06-29 00:22:30",1763974,6.003,341.4,6.722,0.875,25.35,110.1786,25.35,26.48,36.67,0,111.2,13.03,26.19,303.4
"2016-06-29 00:23:00",1763975,6.471,341.6,3.245,0.777,26.1,110.1783,25.35,26.46,37.29,0,111.3,13.03,26.19,303.6
"2016-06-29 00:23:30",1763976,5.466,340.8,7.995,0.455,25.14,110.1783,25.35,26.43,37.76,0,111.3,13.03,26.19,302.8
"2016-06-29 00:24:00",1763977,6.64,347.7,7.375,0.825,25.22,110.1789,25.35,26.43,37.2,0,111.3,13.03,26.19,309.7
"2016-06-29 00:24:30",1763978,5.179,4.557,8.56,0.684,25.09,110.1825,25.36,26.43,37.24,0,111.3,13.03,26.20,326.6
"2016-06-29 00:25:00",1763979,5.78,24.49,5.028,1.296,24.94,110.1899,25.38,26.43,37.63,0,111.3,13.03,26.22,346.5
"2016-06-29 00:25:30",1763980,4.099,11.17,11.78,0.826,24.97,110.2095,25.43,26.43,38.02,0,111.2,13.03,26.27,333.2
"2016-06-29 00:26:00",1763981,5.485,3.156,9.01,1.237,25.15,110.2123,25.44,26.43,38.04,0,111.3,13.02,26.28,325.2
"2016-06-29 00:26:30",1763982,5.012,4.864,14.76,1.42,25.04,110.2123,25.44,26.45,38.1,0,111.3,13.02,26.28,326.9
"2016-06-29 00:27:00",1763983,4.919,18.22,10.37,1.742,25.23,110.2177,25.45,26.45,38.2,0,111.2,13.02,26.29,340.2
"2016-06-29 00:27:30",1763984,5.37,24.73,11.18,1.71,25.19,110.2371,25.5,26.47,38.4,0,111.3,13.02,26.34,346.7
"2016-06-29 00:28:00",1763985,7.413,37.08,7.961,1.874,25.2,110.246,25.53,26.47,37.47,0,111.3,13.02,26.37,359.1
"2016-06-29 00:28:30",1763986,7.529,39.78,7.257,1.266,25.09,110.246,25.53,26.47,37.59,0,111.3,13.02,26.37,1.8
"2016-06-29 00:29:00",1763987,7.817,32.83,7.933,2.223,25.2,110.246,25.53,26.5,38.29,0,111.3,13.02,26.37,354.8
"2016-06-29 00:29:30",1763988,8.34,19.1,7.597,2.04,25.3,110.246,25.53,26.51,38.41,0,111.3,13.02,26.37,341.1
"2016-06-29 00:30:00",1763989,9.26,39.41,5.098,0.803,25.36,110.246,25.53,26.52,38.99,0,111.3,13.02,26.37,1.4
"2016-06-29 00:30:30",1763990,6.571,31.78,9.73,0.824,25.56,110.246,25.53,26.52,39.22,0,111.3,13.01,26.37,353.8
"2016-06-29 00:31:00",1763991,5.768,28.89,8.18,1.172,25.5,110.246,25.53,26.51,39.49,0,111.3,13.02,26.37,350.9
"2016-06-29 00:31:30",1763992,7.982,21.8,6.571,1.32,25.54,110.2342,25.5,26.51,39.03,0,111.3,13.02,26.34,343.8
"2016-06-29 00:32:00",1763993,6.406,355.9,15.69,0.899,25.68,110.2146,25.45,26.5,38.28,0,111.3,13.02,26.29,317.9
"2016-06-29 00:32:30",1763994,6.38,348.7,7.378,0.628,25.59,110.2123,25.44,26.48,37.61,0,111.3,13.02,26.28,310.7
"2016-06-29 00:33:00",1763995,3.528,6.651,18.09,1.072,25.49,110.1986,25.4,26.47,38.75,0,111.3,13.02,26.25,328.7
"2016-06-29 00:33:30",1763996,3.964,323.8,15.84,1.273,25.36,110.1809,25.36,26.44,38.46,0,111.3,13.02,26.20,285.8
"2016-06-29 00:34:00",1763997,6.083,309.7,6.989,1.609,25.38,110.1772,25.35,26.42,38.48,0,111.3,13.02,26.19,271.7
"2016-06-29 00:34:30",1763998,3.669,343.4,12.58,0.919,25.48,110.1576,25.3,26.39,38.49,0,111.3,13.03,26.14,305.4
"2016-06-29 00:35:00",1763999,2.921,20.07,24.07,1.05,25.44,110.1393,25.25,26.34,38.95,0,111.3,13.03,26.09,342.1
"2016-06-29 00:35:30",1764000,3.683,341,18.43,1.346,25.64,110.1137,25.19,26.29,38.25,0,111.3,13.03,26.03,303.0
"2016-06-29 00:36:00",1764001,5.211,318.4,8.34,0.602,25.53,110.091,25.13,26.23,38.41,0,111.3,13.03,25.97,280.4
"2016-06-29 00:36:30",1764002,3.174,322.8,19.88,0.875,25.45,110.0663,25.06,26.15,39.13,0,111.3,13.03,25.90,284.8
"2016-06-29 00:37:00",1764003,3.741,32.44,16.14,1.997,25.22,110.0438,25.01,26.1,40.53,0,111.3,13.03,25.85,354.4
"2016-06-29 00:37:30",1764004,4.663,33.18,7.614,1,25.15,110.0404,25,26.04,41.24,0,111.3,13.03,25.84,355.2
"2016-06-29 00:38:00",1764005,4.486,35.91,5.153,0.721,24.97,110.0264,24.96,26.03,40.92,0,111.3,13.03,25.80,357.9
"2016-06-29 00:38:30",1764006,4.484,35.06,4.338,0.741,25.06,110.0183,24.94,26.02,41.2,0,111.3,13.03,25.78,357.1
"2016-06-29 00:39:00",1764007,4.039,31.56,8.77,0.713,25.1,110.0104,24.92,26.01,41.52,0,111.3,13.03,25.76,353.6
"2016-06-29 00:39:30",1764008,4.897,33.85,13.43,1.161,25.16,110.0101,24.92,25.98,41.75,0,111.3,13.03,25.76,355.9
"2016-06-29 00:40:00",1764009,5.666,46.53,4.88,1.019,25.09,110.0101,24.92,25.99,42.18,0,111.3,13.03,25.76,8.5
"2016-06-29 00:40:30",1764010,4.817,58.86,3.393,0.293,25.08,110.0056,24.91,25.96,41.76,0,111.3,13.03,25.75,20.9
"2016-06-29 00:41:00",1764011,3.849,57.63,5.181,0.71,24.91,109.9851,24.86,25.95,40.44,0,111.3,13.03,25.69,19.6
"2016-06-29 00:41:30",1764012,2.445,49.01,14.19,1.041,24.77,109.977,24.84,25.93,40.62,0,111.3,13.03,25.67,11.0
"2016-06-29 00:42:00",1764013,0.979,356.5,16.98,0.533,24.81,109.9764,24.83,25.91,41.24,0,111.3,13.03,25.67,318.5
"2016-06-29 00:42:30",1764014,1.962,349.7,7.613,0.37,24.71,109.9761,24.83,25.9,40.6,0,111.3,13.03,25.67,311.7
"2016-06-29 00:43:00",1764015,2.413,331.7,11.4,0.375,24.6,109.968,24.81,25.87,40.86,0,111.3,13.03,25.65,293.7
"2016-06-29 00:43:30",1764016,2.079,349.9,5.603,0.428,24.76,109.9433,24.75,25.85,40.55,0,111.3,13.03,25.59,311.9
"2016-06-29 00:44:00",1764017,1.93,352,7.034,0.473,24.85,109.9219,24.69,25.8,40.11,0,111.3,13.02,25.53,314.0
"2016-06-29 00:44:30",1764018,3.571,347.3,5.076,0.389,24.76,109.9101,24.66,25.76,39.64,0,111.3,13.02,25.50,309.3
"2016-06-29 00:45:00",1764019,3.621,344.3,3.357,0.287,24.75,109.9141,24.67,25.74,39.67,0,111.3,13.02,25.51,306.3
"2016-06-29 00:45:30",1764020,3.791,341.8,6.685,0.411,24.8,109.9208,24.69,25.74,39.67,0,111.3,13.02,25.53,303.8
"2016-06-29 00:46:00",1764021,4.131,336.7,4.1,0.292,24.81,109.9264,24.71,25.74,39.75,0,111.3,13.02,25.54,298.7
"2016-06-29 00:46:30",1764022,4.414,338.7,3.734,0.49,24.83,109.936,24.73,25.75,39.64,0,111.3,13.02,25.57,300.7
"2016-06-29 00:47:00",1764023,4.869,334.2,8.44,0.295,24.98,109.9421,24.75,25.73,39.68,0,111.3,13.02,25.58,296.2
"2016-06-29 00:47:30",1764024,4.218,323,6.083,0.216,25.01,109.9427,24.75,25.75,40.21,0,111.3,13.02,25.59,285.0
"2016-06-29 00:48:00",1764025,3.978,325.2,3.19,0.349,24.96,109.9393,24.74,25.73,39.79,0,111.3,13.02,25.58,287.2
"2016-06-29 00:48:30",1764026,3.367,332.8,8.26,0.395,24.89,109.9258,24.7,25.74,39.43,0,111.3,13.02,25.54,294.8
"2016-06-29 00:49:00",1764027,2.821,346,6.323,0.199,24.91,109.9312,24.72,25.71,39.28,0,111.2,13.02,25.56,308.0
"2016-06-29 00:49:30",1764028,3.275,345.5,5.855,0.536,24.86,109.939,24.74,25.73,39,0,111.3,13.03,25.58,307.5
"2016-06-29 00:50:00",1764029,3.302,331.2,2.797,0.306,24.78,109.9419,24.75,25.73,39.03,0,111.3,13.03,25.58,293.2
"2016-06-29 00:50:30",1764030,3.418,334.5,2.448,0.384,24.87,109.9427,24.75,25.73,39.02,0,111.3,13.03,25.59,296.5
"2016-06-29 00:51:00",1764031,3.261,344.4,4.596,0.267,24.9,109.9427,24.75,25.73,38.69,0,111.3,13.03,25.59,306.4
"2016-06-29 00:51:30",1764032,3.353,344,3.943,0.482,24.91,109.9427,24.75,25.75,38.02,0,111.3,13.03,25.59,306.0
"2016-06-29 00:52:00",1764033,2.79,332.4,9.1,0.482,24.81,109.9427,24.75,25.74,38.2,0,111.3,13.03,25.59,294.4
"2016-06-29 00:52:30",1764034,3.226,305.9,7.769,0.257,24.78,109.9427,24.75,25.75,39.11,0,111.3,13.03,25.59,267.9
"2016-06-29 00:53:00",1764035,2.439,310,5.373,0.278,24.73,109.9427,24.75,25.75,38.91,0,111.3,13.03,25.59,272.0
"2016-06-29 00:53:30",1764036,2.281,305.6,6.422,0.204,24.79,109.9427,24.75,25.74,38.95,0,111.3,13.03,25.59,267.6
"2016-06-29 00:54:00",1764037,2.076,307.2,4.481,0.168,24.83,109.9427,24.75,25.75,38.62,0,111.3,13.03,25.59,269.2
"2016-06-29 00:54:30",1764038,2.013,304.9,3.504,0.214,24.99,109.9427,24.75,25.75,38.4,0,111.3,13.03,25.59,266.9
"2016-06-29 00:55:00",1764039,2.177,304.3,4.377,0.221,24.82,109.9427,24.75,25.75,38,0,111.3,13.03,25.59,266.3
"2016-06-29 00:55:30",1764040,2.115,303.3,4.5,0.153,24.93,109.9421,24.75,25.76,37.72,0,111.3,13.03,25.58,265.3
"2016-06-29 00:56:00",1764041,2.614,307,4.299,0.184,24.95,109.9399,24.74,25.74,37.06,0,111.3,13.03,25.58,269.0
"2016-06-29 00:56:30",1764042,2.659,308.1,4.149,0.175,24.83,109.9337,24.72,25.74,36.82,0,111.3,13.03,25.56,270.1
"2016-06-29 00:57:00",1764043,2.995,307.9,7.376,0.31,24.77,109.9284,24.71,25.75,36.54,0,111.3,13.03,25.55,269.9
"2016-06-29 00:57:30",1764044,3.735,276.4,4.531,0.19,24.93,109.9236,24.7,25.74,38.14,0,111.3,13.03,25.54,238.4
"2016-06-29 00:58:00",1764045,4.09,281.4,4.525,0.515,24.91,109.9219,24.69,25.73,39.62,0,111.3,13.03,25.53,243.4
"2016-06-29 00:58:30",1764046,5.155,286.1,3.375,0.283,24.85,109.9197,24.69,25.73,40.57,0,111.3,13.03,25.53,248.1
"2016-06-29 00:59:00",1764047,4.434,289.5,4.611,0.315,24.44,109.9169,24.68,25.73,40.98,0,111.3,13.03,25.52,251.5
"2016-06-29 00:59:30",1764048,3.925,289.2,4.685,0.291,23.48,109.9149,24.68,25.71,38.76,0,111.3,13.03,25.51,251.2
"2016-06-29 01:00:00",1764049,4.08,273.4,9.03,0.269,23.51,109.909,24.66,25.71,37.64,0,111.3,13.03,25.50,235.4
"2016-06-29 01:00:30",1764050,4.047,279.9,6.441,0.403,23.31,109.9081,24.66,25.7,36.65,0,111.3,13.03,25.50,241.9
"2016-06-29 01:01:00",1764051,3.372,271.8,9.84,0.614,24.3,109.8854,24.6,25.69,37.59,0,111.3,13.03,25.44,233.8
"2016-06-29 01:01:30",1764052,1.836,268.1,7.04,0.235,24.75,109.8753,24.57,25.68,38.51,0,111.3,13.02,25.41,230.1
"2016-06-29 01:02:00",1764053,2.658,265.2,6.915,0.428,24.36,109.8753,24.57,25.67,39.27,0,111.3,13.02,25.41,227.2
"2016-06-29 01:02:30",1764054,2.625,249.5,8.17,0.35,24.3,109.8683,24.56,25.63,39.61,0,111.3,13.02,25.39,211.5
"2016-06-29 01:03:00",1764055,2.531,253.5,6.716,0.385,24.47,109.8646,24.55,25.63,39.83,0,111.3,13.02,25.38,215.5
"2016-06-29 01:03:30",1764056,2.768,247.3,8.63,0.334,24.54,109.8657,24.55,25.62,40.98,0,111.3,13.02,25.39,209.3
"2016-06-29 01:04:00",1764057,2.969,267,6.489,0.405,24.48,109.861,24.54,25.59,40.4,0,111.3,13.02,25.37,229.0
"2016-06-29 01:04:30",1764058,3.248,242.7,7.993,0.415,24.4,109.8433,24.49,25.58,39.7,0,111.3,13.02,25.33,204.7
"2016-06-29 01:05:00",1764059,3.34,265.4,10.35,0.447,24.34,109.8416,24.49,25.56,38.82,0,111.3,13.02,25.32,227.4
"2016-06-29 01:05:30",1764060,3.932,277.6,15.14,0.592,24.29,109.8416,24.49,25.55,38.44,0,111.3,13.02,25.32,239.6
"2016-06-29 01:06:00",1764061,4.847,250.5,6.647,0.899,24.41,109.8416,24.49,25.52,38.46,0,111.3,13.02,25.32,212.5
"2016-06-29 01:06:30",1764062,4.101,239.5,13.89,0.713,24.2,109.8413,24.49,25.53,37.86,0,111.3,13.02,25.32,201.5
"2016-06-29 01:07:00",1764063,4.86,227.7,6.022,0.539,23.92,109.8377,24.48,25.51,35.59,0,111.3,13.03,25.31,189.7
"2016-06-29 01:07:30",1764064,4.139,226,6.513,0.665,24.12,109.8188,24.43,25.5,35.32,0,111.3,13.03,25.27,188.0
"2016-06-29 01:08:00",1764065,5.036,230.2,8.06,0.391,24.23,109.8079,24.4,25.49,35.27,0,111.3,13.03,25.24,192.2
"2016-06-29 01:08:30",1764066,4.769,232.3,4.4,0.356,24.29,109.8079,24.4,25.47,35.03,0,111.3,13.03,25.24,194.3
"2016-06-29 01:09:00",1764067,4.419,237.9,7.61,0.308,24.43,109.8079,24.4,25.45,35.49,0,111.3,13.03,25.24,199.9
"2016-06-29 01:09:30",1764068,3.807,244.7,4.425,0.283,24.47,109.8037,24.39,25.44,36.02,0,111.3,13.03,25.23,206.7
"2016-06-29 01:10:00",1764069,4.344,235.3,6.589,0.659,24.44,109.7806,24.33,25.42,35.71,0,111.3,13.03,25.17,197.3
"2016-06-29 01:10:30",1764070,4.903,233.7,4.622,0.261,24.53,109.7742,24.31,25.39,34.6,0,111.3,13.03,25.15,195.7
"2016-06-29 01:11:00",1764071,4.772,240.3,3.647,0.576,24.64,109.7728,24.31,25.38,35.9,0,111.3,13.03,25.15,202.3
"2016-06-29 01:11:30",1764072,4.104,239.4,4.042,0.254,24.63,109.7509,24.25,25.34,36.1,0,111.3,13.03,25.09,201.4
"2016-06-29 01:12:00",1764073,4.159,224.1,6.608,0.526,24.58,109.7405,24.23,25.33,35.91,0,111.3,13.03,25.06,186.1
"2016-06-29 01:12:30",1764074,4.962,205.2,6.559,0.83,24.45,109.7405,24.23,25.3,34.48,0,111.3,13.03,25.06,167.2
"2016-06-29 01:13:00",1764075,3.725,207.5,13.24,0.714,24.54,109.7354,24.21,25.29,35.73,0,111.3,13.03,25.05,169.5
"2016-06-29 01:13:30",1764076,3.654,223,4.641,0.296,24.45,109.7135,24.16,25.28,36.66,0,111.3,13.03,24.99,185.0
"2016-06-29 01:14:00",1764077,3.546,215.5,7.295,0.296,24.44,109.7068,24.14,25.25,36.46,0,111.3,13.03,24.98,177.5
"2016-06-29 01:14:30",1764078,3.957,226.4,8.39,0.604,24.46,109.7068,24.14,25.23,36.29,0,111.2,13.03,24.98,188.4
"2016-06-29 01:15:00",1764079,4.789,226,5.9,0.467,24.41,109.7057,24.14,25.2,35.63,0,111.2,13.03,24.97,188.0
"2016-06-29 01:15:30",1764080,4.346,227.4,5.52,0.563,24.48,109.6967,24.12,25.19,34.82,0,111.3,13.03,24.95,189.4
"2016-06-29 01:16:00",1764081,3.223,229.4,6.442,0.263,24.58,109.6835,24.08,25.15,36.29,0,111.2,13.03,24.92,191.4
"2016-06-29 01:16:30",1764082,2.776,223.5,6.477,0.254,24.6,109.6762,24.06,25.16,36.66,0,111.2,13.03,24.90,185.5
"2016-06-29 01:17:00",1764083,2.875,221.1,4.132,0.187,24.67,109.6731,24.05,25.14,36.55,0,111.2,13.03,24.89,183.1
"2016-06-29 01:17:30",1764084,3.338,232.9,7.773,0.552,24.62,109.6731,24.05,25.13,35.68,0,111.2,13.03,24.89,194.9
"2016-06-29 01:18:00",1764085,4.074,230,3.698,0.425,24.66,109.6731,24.05,25.12,35.85,0,111.2,13.03,24.89,192.0
"2016-06-29 01:18:30",1764086,3.528,235.8,7.435,0.331,24.77,109.6731,24.05,25.11,36.05,0,111.2,13.03,24.89,197.8
"2016-06-29 01:19:00",1764087,3.604,226.6,5.07,0.243,24.76,109.6731,24.05,25.1,36.66,0,111.2,13.03,24.89,188.6
"2016-06-29 01:19:30",1764088,3.667,216.2,9.09,0.425,24.56,109.6731,24.05,25.1,33.9,0,111.2,13.03,24.89,178.2
"2016-06-29 01:20:00",1764089,3.509,225.4,6.616,0.393,24.73,109.6731,24.05,25.09,34.13,0,111.2,13.02,24.89,187.4
"2016-06-29 01:20:30",1764090,3.738,214.5,6.706,0.335,24.83,109.6728,24.05,25.08,34.4,0,111.2,13.02,24.89,176.5
"2016-06-29 01:21:00",1764091,3.809,220,8.26,0.533,24.78,109.6709,24.05,25.09,35.15,0,111.2,13.02,24.88,182.0
"2016-06-29 01:21:30",1764092,4.024,219,6.202,0.256,24.75,109.6659,24.04,25.08,32.96,0,111.2,13.02,24.87,181.0
"2016-06-29 01:22:00",1764093,4.086,221.3,4.809,0.295,24.75,109.6527,24,25.08,33,0,111.2,13.02,24.84,183.3
"2016-06-29 01:22:30",1764094,3.813,212.2,8.76,0.575,24.66,109.6503,24,25.05,31.93,0,111.2,13.03,24.83,174.2
"2016-06-29 01:23:00",1764095,3.94,217.9,8.01,0.572,24.71,109.6498,23.99,25.05,31.47,0,111.2,13.02,24.83,179.9
"2016-06-29 01:23:30",1764096,3.77,225.6,3.267,0.248,24.72,109.6484,23.99,25.04,31.78,0,111.2,13.03,24.83,187.6
"2016-06-29 01:24:00",1764097,4.471,209.5,5.704,0.811,24.71,109.6477,23.99,25.04,31.48,0,111.2,13.03,24.83,171.5
"2016-06-29 01:24:30",1764098,5.161,198.8,2.761,0.196,24.78,109.6514,24,25.04,31.21,0,111.2,13.03,24.83,160.8
"2016-06-29 01:25:00",1764099,4.932,204.1,7.999,0.26,24.74,109.6529,24,25.02,30.98,0,111.2,13.03,24.84,166.1
"2016-06-29 01:25:30",1764100,4.912,207.9,4.475,0.53,24.75,109.6585,24.02,25.03,31.38,0,111.2,13.03,24.85,169.9
"2016-06-29 01:26:00",1764101,4.285,200.3,2.294,0.357,24.82,109.6591,24.02,25.02,31.21,0,111.2,13.03,24.85,162.3
"2016-06-29 01:26:30",1764102,5.06,203.3,5.985,0.271,24.8,109.6646,24.03,25,31.02,0,111.2,13.03,24.87,165.3
"2016-06-29 01:27:00",1764103,4.965,207.2,6.409,0.352,24.9,109.6668,24.04,25.02,31.67,0,111.2,13.03,24.87,169.2
"2016-06-29 01:27:30",1764104,4.793,206.6,4.688,0.338,24.91,109.6674,24.04,25.01,31.84,0,111.2,13.04,24.88,168.6
"2016-06-29 01:28:00",1764105,4.377,208.5,5.078,0.48,24.91,109.666,24.04,25.01,32.24,0,111.2,13.04,24.87,170.5
"2016-06-29 01:28:30",1764106,3.975,210.9,2.884,0.287,24.88,109.6674,24.04,25,32.84,0,111.2,13.04,24.88,172.9
"2016-06-29 01:29:00",1764107,4.197,207.3,1.824,0.258,24.98,109.6682,24.04,25,32.96,0,111.2,13.04,24.88,169.3
"2016-06-29 01:29:30",1764108,3.888,213.1,5.052,0.332,24.98,109.6614,24.02,24.98,33.37,0,111.2,13.04,24.86,175.1
"2016-06-29 01:30:00",1764109,4.164,207.9,3.563,0.461,24.92,109.6602,24.02,25,32.54,0,111.2,13.04,24.86,169.9
"2016-06-29 01:30:30",1764110,4.109,208,7.59,0.601,24.92,109.6552,24.01,25,31.9,0,111.2,13.03,24.84,170.0
"2016-06-29 01:31:00",1764111,4.016,205.9,4.904,0.5,24.94,109.6531,24,24.99,33.46,0,111.2,13.03,24.84,167.9
"2016-06-29 01:31:30",1764112,4.234,205.5,4.111,0.185,24.88,109.6533,24,25,31.41,0,111.2,13.04,24.84,167.5
"2016-06-29 01:32:00",1764113,4.423,210.8,4.524,0.3,24.86,109.6513,24,24.99,30.4,0,111.2,13.03,24.83,172.8
"2016-06-29 01:32:30",1764114,4.088,204.6,6.8,0.236,24.88,109.6496,23.99,24.98,30.6,0,111.2,13.04,24.83,166.6
"2016-06-29 01:33:00",1764115,3.9,208,4.526,0.276,24.93,109.6485,23.99,24.97,30.29,0,111.2,13.04,24.83,170.0
"2016-06-29 01:33:30",1764116,4.525,203.8,5.72,0.498,24.96,109.6494,23.99,24.99,32.12,0,111.2,13.04,24.83,165.8
"2016-06-29 01:34:00",1764117,4.093,206.6,6.639,0.291,24.92,109.6502,24,24.98,31.14,0,111.2,13.04,24.83,168.6
"2016-06-29 01:34:30",1764118,3.942,213.9,5.355,0.313,24.96,109.6513,24,24.98,31.52,0,111.2,13.04,24.83,175.9
"2016-06-29 01:35:00",1764119,3.924,215.1,3.265,0.256,24.97,109.6527,24,24.99,32.62,0,111.2,13.04,24.84,177.1
"2016-06-29 01:35:30",1764120,4.077,211,4.832,0.262,24.98,109.6553,24.01,25,31.19,0,111.2,13.03,24.84,173.0
"2016-06-29 01:36:00",1764121,4.166,208.1,4.631,0.327,24.93,109.655,24.01,24.98,28.45,0,111.2,13.03,24.84,170.1
"2016-06-29 01:36:30",1764122,4.457,214.3,2.937,0.133,24.88,109.6544,24.01,24.99,26.78,0,111.2,13.03,24.84,176.3
"2016-06-29 01:37:00",1764123,4.29,214.5,4.24,0.269,24.9,109.6541,24.01,24.98,26.34,0,111.2,13.03,24.84,176.5
"2016-06-29 01:37:30",1764124,3.926,211.9,2.862,0.216,24.91,109.6544,24.01,25.01,26.48,0,111.2,13.03,24.84,173.9
"2016-06-29 01:38:00",1764125,3.972,213.5,3.031,0.242,24.92,109.6581,24.02,24.98,27.17,0,111.2,13.03,24.85,175.5
"2016-06-29 01:38:30",1764126,3.731,218.8,7.048,0.226,24.86,109.6648,24.03,25,26.95,0,111.2,13.03,24.87,180.8
"2016-06-29 01:39:00",1764127,3.6,226.1,1.807,0.317,24.81,109.6665,24.04,25,26.71,0,111.2,13.03,24.87,188.1
"2016-06-29 01:39:30",1764128,3.291,225.3,3.97,0.254,24.86,109.673,24.05,25.02,26.65,0,111.2,13.03,24.89,187.3
"2016-06-29 01:40:00",1764129,3.1,228.1,3.323,0.166,24.92,109.6744,24.06,25.02,27,0,111.2,13.03,24.89,190.1
"2016-06-29 01:40:30",1764130,2.648,230.8,2.99,0.18,24.91,109.6763,24.06,25.01,28.74,0,111.2,13.03,24.90,192.8
"2016-06-29 01:41:00",1764131,2.306,248,6.658,0.222,24.98,109.6763,24.06,25.03,28.94,0,111.2,13.03,24.90,210.0
"2016-06-29 01:41:30",1764132,2.167,245.5,6.077,0.266,24.99,109.6763,24.06,25.04,29.64,0,111.2,13.04,24.90,207.5
"2016-06-29 01:42:00",1764133,2.004,253.8,3.726,0.165,24.99,109.6763,24.06,25.05,29.92,0,111.2,13.04,24.90,215.8
"2016-06-29 01:42:30",1764134,2.225,255.1,3.42,0.127,24.98,109.6763,24.06,25.07,30.79,0,111.2,13.04,24.90,217.1
"2016-06-29 01:43:00",1764135,2.563,245.6,7.627,0.39,25,109.6763,24.06,25.07,30.26,0,111.2,13.04,24.90,207.6
"2016-06-29 01:43:30",1764136,2.45,244.3,4.253,0.187,24.95,109.6766,24.06,25.06,28.47,0,111.1,13.04,24.90,206.3
"2016-06-29 01:44:00",1764137,2.724,257.3,4.968,0.149,24.98,109.6763,24.06,25.07,29.44,0,111.2,13.04,24.90,219.3
"2016-06-29 01:44:30",1764138,2.541,249.6,2.942,0.209,25.02,109.6794,24.07,25.08,31.27,0,111.2,13.04,24.91,211.6
"2016-06-29 01:45:00",1764139,2.396,235.1,6.62,0.299,25,109.6785,24.07,25.09,31.41,0,111.2,13.04,24.90,197.1
"2016-06-29 01:45:30",1764140,2.115,229.9,9.6,0.323,25.03,109.6794,24.07,25.09,29.97,0,111.1,13.04,24.91,191.9
"2016-06-29 01:46:00",1764141,2.272,246.7,4.936,0.292,25.01,109.6788,24.07,25.09,30.84,0,111.1,13.04,24.91,208.7
"2016-06-29 01:46:30",1764142,2.213,258.1,7.114,0.23,25.03,109.6806,24.07,25.1,30.25,0,111.1,13.04,24.91,220.1
"2016-06-29 01:47:00",1764143,2.526,252.8,3.246,0.172,25.11,109.6833,24.08,25.1,30.92,0,111.1,13.04,24.92,214.8